STARLINK-34597

Last updated on Sat Jul 19 2025 00:02:08 GMT+0000 (Coordinated Universal Time)

1 64738U 25144Q 25199.56370956 -.00534759 00000+0 -42551-2 0 9994 2 64738 53.1584 192.2707 0000360 21.2042 338.8992 15.72070740 3798
UTC large
Height (km)
Speed (km/s)
/
Latitude / Longitude
Inclination (degrees)
Orbital Period (minutes)
Azimuth
Elevation
Range (km)
Doppler Factor

Next 0 passes for location: London (51.5072 / 0.1276)

Sorry there are no passes over London.